Location: The Saddle
(36.8333°N, 80.3417°W)
Time: 00:26:48
(UTC-05:00)

SR - Visible Passes

Search period start: 10 December 2023 00:00
Search period end: 20 December 2023 00:00
Orbit: 571 x 872 km, 66.7° (Epoch: 09 December)

Date Brightness Start Highest point End Pass type
(mag) Time Alt. Az. Time Alt. Az. Time Alt. Az.
10 Dec ? 17:44:24 10° NNE 17:46:51 13° NE 17:48:54 11° ENE visible
10 Dec ? 19:24:11 10° NNW 19:28:16 47° N 19:28:16 47° N visible
11 Dec ? 18:32:54 10° NNW 18:38:10 37° NE 18:39:31 32° E visible
11 Dec ? 20:15:12 10° NW 20:18:55 27° W 20:18:55 27° W visible
12 Dec ? 17:42:03 10° N 17:46:11 20° NE 17:50:07 10° E visible
12 Dec ? 19:23:06 10° NW 19:28:41 63° WSW 19:30:56 34° S visible
13 Dec ? 18:31:30 10° NNW 18:37:09 62° ENE 18:42:22 10° SE visible
13 Dec ? 20:15:12 10° WNW 20:18:25 16° WSW 20:21:30 10° SW visible
14 Dec ? 17:40:19 10° N 17:45:21 31° NE 17:50:05 10° ESE visible
14 Dec ? 19:22:18 10° NW 19:27:19 35° WSW 19:31:59 10° S visible
15 Dec ? 18:30:19 10° NNW 18:35:58 76° WSW 18:41:10 10° SSE visible
16 Dec ? 17:38:50 10° NNW 17:44:22 52° ENE 17:49:29 10° SE visible
16 Dec ? 19:22:00 10° WNW 19:25:48 19° WSW 19:29:24 10° SSW visible
17 Dec ? 18:29:24 10° NW 18:34:38 42° WSW 18:39:28 10° S visible
18 Dec ? 17:37:34 10° NNW 17:43:14 90° W 17:48:25 10° SSE visible
19 Dec ? 06:25:12 10° ESE 06:27:15 12° E 06:29:20 10° E visible
19 Dec ? 18:28:54 10° NW 18:33:09 23° WSW 18:37:08 10° SSW visible
